Location: Buisson
(44.2787°N, 4.9969°E)
Time: 08:07:55
(UTC+00:00)

Cosmos 1726 - Pass Details

Date: 18 April 2021
Orbit: 481 x 496 km, 82.5° (Epoch: 06 May)

Event Time Altitude Azimuth Distance (km) Brightness Sun altitude
Rises 04:15:24 0° 351° (N) 2,593 5.9 -6.9°
Reaches altitude 10° 04:17:31 10° 351° (N) 1,706 5.0 -6.5°
Maximum altitude 04:21:16 87° 261° (W) 504 2.1 -5.9°
Drops below altitude 10° 04:24:58 10° 174° (S) 1,690 4.7 -5.3°
Sets 04:27:04 0° 174° (S) 2,567 5.6 -4.9°
